www.pogodaiklimat.ru

Погода и климат >> Архив погоды >> Россия >> Ярославская область >> Рыбинск


АРХИВ ПОГОДЫ в Рыбинске

Время (UTC), дата Ветер
(напр.,м/с)
 
Видим.   Явления Облачность Т
(С)
Тd
(С)
f
(%)
Тe
(С)
Тes
(С)
Комфортность P
(гПа)
Po
(гПа)
Тmin
(С)
Tmax
(С)
R
(мм)
R24
(мм)
S
(см)
21 15.04 штиль 0 12 км ясно +0.8 -2.2 80 -0 -0 по сезону 1020.3 1006.9
00 16.04 штиль 0 11 км ясно -0.8 -2.6 88 -2 -2 по сезону 1020.2 1006.8
03 16.04 ЮВ 1 15 км ясно -1.2 -3.6 84 -3 -3 прохладно 1020.2 1006.8 -2.1
06 16.04 штиль 0 15 км ясно +7.9 -0.9 54 +8 +15 тепло 1019.0 1006.1
09 16.04 СВ 2 16 км ясно +16.5 -4.7 23 +17 +27 тепло 1018.1 1005.5
12 16.04 СВ 1 15 км 3/0
[Ci fib]
+17.5 -5.1 21 +19 +27 тепло 1016.8 1004.2
15 16.04 штиль 0 13 км 10/0
[As trans]
+13.2 +0.2 41 +13 +14 тепло 1016.0 1003.4 +17.9
18 16.04 штиль 0 12 км 4/0
[As trans]
+6.6 -1.6 56 +6 +6 по сезону 1016.2 1003.3
21 16.04 штиль 0 13 км ясно +2.9 -1.3 74 +2 +2 по сезону 1016.4 1003.3
00 17.04 штиль 0 13 км ясно +1.9 -2.1 75 +1 +1 по сезону 1016.9 1003.7
03 17.04 штиль 0 13 км 8/0
[Ac trans]
+1.9 -1.5 78 +1 +1 по сезону 1016.7 1003.6 -0.1
06 17.04 СЗ 1 12 км 6/0
[Ci sp]
+10.0 +1.9 57 +10 +16 тепло 1016.9 1004.1
09 17.04 СЗ 2 14 км 4/0
[Ci sp]
+14.1 +4.7 53 +14 +23 тепло 1016.5 1003.9
12 17.04 С 2 15 км 6/0
[Ac trans]
+17.2 +3.9 41 +18 +22 тепло 1015.8 1003.2
15 17.04 штиль 0 15 км 6/0
[Ci sp]
+15.2 +2.1 41 +15 +17 тепло 1014.8 1002.2 +17.5
18 17.04 ЮВ 1 12 км 6/0
[As trans]
+8.7 +4.1 73 +8 +8 тепло 1014.2 1001.3
21 17.04 ЮВ 1 11 км 6/0
[As trans]
+7.4 +4.0 79 +7 +7 тепло 1013.2 1000.2
00 18.04 ЮВ 1 10 км 10/0
[As op]
+8.2 +3.3 71 +8 +8 тепло 1011.5 998.6
03 18.04 В 1 8000 м слабый дождь 10/0 2000 м
[As op]
+5.6 +3.9 89 +4 +4 по сезону 1010.4 997.5 +5.6 0.5
06 18.04 В 3 7000 м слабый дождь 10/10 300 м
[Frnb Ns]
+7.9 +6.8 93 +5 +5 по сезону 1009.2 996.4
09 18.04 В 4 8000 м слабый дождь 10/10 300 м
[Frnb Ns]
+8.7 +7.6 93 +5 +5 по сезону 1009.3 996.5
12 18.04 В 2 8000 м слабый дождь 10/10 300 м
[Frnb Ns]
+8.1 +6.9 92 +6 +6 по сезону 1010.0 997.1
15 18.04 В 2 8000 м слабый дождь 10/10 300 м
[Frnb Ns]
+6.6 +5.6 93 +4 +4 по сезону 1010.5 997.5 +8.8 10
18 18.04 штиль 0 8000 м слабый дождь 10/10 300 м
[Frnb Ns]
+6.0 +4.9 93 +5 +5 по сезону 1011.0 998.0
21 18.04 В 1 10 км {дождь} 10/10 300 м
[Sc]
+6.6 +1.6 70 +6 +6 тепло 1010.3 997.3
00 19.04 СЗ 1 10 км {дождь} 10/10 300 м
[Sc]
+4.1 +0.4 77 +3 +3 по сезону 1010.0 996.9
03 19.04 СЗ 1 12 км 10/10 300 м
[Sc]
+3.9 -0.7 72 +3 +3 по сезону 1009.5 996.5 +3.3 4
06 19.04 СЗ 2 14 км 8/8 300 м
[Sc]
+6.7 -0.7 59 +5 +6 по сезону 1009.4 996.4
09 19.04 СЗ 3 15 км 6/0
[Ci fib]
+7.0 +0.2 62 +4 +12 по сезону 1009.2 996.4
12 19.04 СЗ 3 20 км 4/0
[Ci fib]
+11.2 -0.9 43 +10 +16 тепло 1009.1 996.4
15 19.04 СЗ 2 18 км 8/0
[Ci fib]
+9.0 -2.4 45 +8 +9 по сезону 1009.9 997.1 +12.0
18 19.04 С 4 13 км 6/0
[Ci fib]
+8.7 -2.3 46 +6 +6 по сезону 1011.8 999.0
21 19.04 СЗ 2 12 км ясно +4.9 -1.9 61 +3 +3 по сезону 1013.4 1000.3
00 20.04 СЗ 1 12 км ясно +2.4 -1.8 74 +1 +1 по сезону 1014.0 1000.8
03 20.04 СЗ 1 15 км 6/0 2000 м
[Ac trans]
+1.6 -0.8 84 -0 0 по сезону 1015.1 1002.0 +0.5
06 20.04 СЗ 2 15 км ясно +6.1 -1.3 59 +4 +10 по сезону 1016.0 1003.1
09 20.04 СЗ 3 16 км 3/3 600 м
[Cu med, cong]
+6.1 -1.0 60 +3 +10 по сезону 1016.6 1003.6
12 20.04 СЗ 2 18 км 4/0
[Ci fib]
+7.7 -3.8 44 +6 +13 по сезону 1015.8 1002.9
15 20.04 С 1 14 км 10/0 2000 м
[As op]
+4.7 -3.1 57 +4 +4 по сезону 1014.5 1001.5 +7.9
18 20.04 штиль 0 12 км 10/0
[As op]
+4.0 -2.3 63 +3 +3 по сезону 1012.5 999.5
21 20.04 Ю 1 8000 м слабый дождь 10/10 300 м
[Frnb Ns]
+3.4 -1.0 73 +2 +2 по сезону 1009.9 996.9
00 21.04 Ю 2 7000 м 10/10 300 м
[Frnb Ns]
+2.6 +1.3 91 -1 -1 по сезону 1005.5 992.5 616
03 21.04 Ю 2 8000 м слабый дождь 10/10 300 м
[Frnb Ns]
+3.3 +2.4 94 0 0 по сезону 1000.3 987.4 +2.5 5
06 21.04 Ю 2 8000 м дождь 10/10 300 м
[Frnb Ns]
+4.6 +3.6 93 +2 +2 по сезону 995.8 982.9
09 21.04 ЮВ 2 8000 м дождь 10/10 300 м
[Frnb Ns]
+7.0 +6.2 95 +5 +5 по сезону 989.8 977.1
12 21.04 Ю 1 8000 м слабый дождь 10/10 300 м
[Frnb Ns]
+9.8 +8.9 94 +9 +9 по сезону 985.1 972.6
15 21.04 З 1 11 км {дождь} 10/10 300 м
[Sc]
+10.7 +8.0 83 +10 +10 тепло 982.1 969.8 +11.5 11
18 21.04 СЗ 5-11
{11}
8000 м слабый дождь 10/10 300 м
[Frnb Ns]
+1.9 +1.3 96 -4 -4 очень
холодно
984.4 971.5
21 21.04 СЗ 7-12
{13}
6000 м слабый ливневой дождь со снегом 10/10 300 м
[Cb cap]
+0.3 -0.1 97 -7 -7 очень
холодно
988.9 975.9
00 22.04 С 6-11
{14}
9000 м слабый ливневой дождь со снегом 10/10 300 м
[Cb cap]
-0.1 -1.8 88 -7 -7 холодно 992.8 979.8
03 22.04 С 6-10
{13}
10 км {ливн. осадки} 10/10 300 м
[Sc]
-0.6 -2.8 85 -7 -7 очень
холодно
995.6 982.6 -0.6 3 1
06 22.04 С 5-10
{12}
13 км {ливн. осадки} 10/10 300 м
[Sc]
-0.2 -3.0 81 -6 -6 очень
холодно
997.8 984.7 -0.6
09 22.04 СЗ 5-10
{11}
15 км 8/8 300 м
[Sc]
+1.7 -3.2 70 -4 -2 очень
холодно
999.8 986.8
12 22.04 С 3
{10}
13 км 10/10 300 м
[Sc]
+2.7 -4.8 58 -1 -1 очень
холодно
1003.4 990.4
15 22.04 СЗ 3 11 км 10/10 300 м
[Sc]
+2.1 -4.2 63 -2 -2 очень
холодно
1005.4 992.4 +3.3
18 22.04 СЗ 4 11 км 8/8 300 м
[Sc]
+1.1 -4.6 66 -4 -4 очень
холодно
1007.3 994.1

 

Местоположение метеостанции Рыбинск (Ярославская область, Россия): широта 58.10 долгота 38.68 высота над уровнем моря 105 м.

В архиве по умолчанию представлена погода в Рыбинске за последнюю неделю. Архивные данные за месяц целиком и за предыдущие месяцы, начиная с января 2011 года, Вы можете получить, выбрав интересующий диапазон дат из раскрывающегося списка и нажав кнопку "Ввод!".


*Определитесь, кто Вы:
робот инопланетянин человек

Внимание! Время в таблицах - всемирное. Для получения местного времени необходимо прибавить поправку, которая в Рыбинске равна 3 ч.

Смотрите также архив погоды в соседних городах и на ближайших метеорологических станциях:

Погода в Борке (Ярославская область, Россия) (26 км)
Погода в Мышкине (Ярославская область, Россия) (38 км)
Погода в Большом Селе (Ярославская область, Россия) (45 км)
Погода в Пошехонье (Ярославская область, Россия) (50 км)
Погода в Брейтово (Ярославская область, Россия) (53 км)
Погода в Тутаеве (Ярославская область, Россия) (55 км)
Погода в Угличе (Ярославская область, Россия) (70 км)
Погода в Данилове (Ярославская область, Россия) (89 км)
Погода в Ярославле-Музее (Ярославская область, Россия) (89 км)
Погода в Ярославле (Ярославская область, Россия) (89 км)

Пояснения к столбцам:

Ветер - указаны скорость ветра в м/с - средняя за 10 мин, порывы в срок и между сроками (в фигурных скобках) и направление, откуда дует ветер: С - северный, СВ - северо-восточный, В - восточный, ЮВ - юго-восточный, Ю - южный, ЮЗ - юго-западный, З - западный, СЗ - северо-западный.
Видимость - горизонтальная дальность видимости в метрах или километрах. При видимости от 1 до 10 км при отсутствии осадков обычно наблюдается дымка, при ухудшении видимости до 1 км и менее - туман. В сухую погоду видимость может ухудшаться дымом, пылью или мглою.
Явления - указаны атмосферные явления, наблюдавшиеся в срок или в последний час перед сроком; фигурными скобками обозначены явления, наблюдавшиеся между сроками (за 1-3 часа до срока); квадратными скобками обозначены град или гололедные отложения с указанием их диаметра в мм.
Облачность - указаны через наклонную черту общая и нижняя облачность в баллах и высота нижней границы облаков в метрах; квадратными скобками обозначены формы облаков: Ci - перистые, Cs - перисто-слоистые, Cc - перисто-кучевые, Ac - высококучевые, As - высокослоистые, Sc - слоисто-кучевые, Ns - слоисто-дождевые, Cu - кучевые, Cb - кучево-дождевые. Подробнее классификацию облаков см. в Атласе облаков (PDF).
T - Температура воздуха - температура, измеренная на высоте 2 м над землей.
Td - Температура точки росы - температура, при понижении до которой содержащийся в воздухе водяной пар достигнет насыщения.
f - Относительная влажность воздуха - влажноcть воздуха, измеренная на высоте 2 м над землей.
Te - Эффективная температура - температура, которую ощущает одетый по сезону человек в тени. Характеристика душности погоды. При расчете учитывается влияние влажности воздуха и скорости ветра на теплоощущения человека.
Tes - Эффективная температура на солнце - температура, которую ощущает человек, с поправкой на солнечный нагрев. Характеристика знойности погоды. Зависит от высоты солнца над горизонтом, облачности и скорости ветра. Ночью, в пасмурную погоду, а также при ветре 12 м/с и более поправка равна нулю.
P - Атмосферное давление - приведенное к уровню моря атмосферное давление.
Po - Атмосферное давление - измеренное на уровне метеостанции атмосферное давление.
Tmin - Минимальная температура - минимум температуры воздуха на высоте 2 м над землей.
Tmax - Максимальная температура - максимум температуры воздуха на высоте 2 м над землей.
R - Количество осадков - Количество выпавших осадков за период времени, мм. При наведении курсора мыши на число - период времени, за который выпало указанное количество осадков.
R24 - Количество осадков - Количество выпавших осадков за 24 часа, мм.
S - Снежный покров - Высота снежного покрова, см. При наведении курсора мыши на число - состояние снежного покрова и степень покрытия местности в баллах.